Weather History for Ely, MN

Change the Weather History Date:

Tuesday, August 5, 2014

  Actual Average Record
Temperature  
Mean Temperature 60 °F -  
Max Temperature 77 °F 73 °F 93 °F (2001)
Min Temperature 44 °F 52 °F 37 °F (2004)
Degree Days  
Heating Degree Days 4    
Growing Degree Days 10 (Base 50)    
Moisture  
Dew Point 53 °F    
Average Humidity 72    
Maximum Humidity 100    
Minimum Humidity 43    
Precipitation  
Precipitation 0.07 in - - ()
Sea Level Pressure  
Sea Level Pressure 30.13 in    
Wind  
Wind Speed 1 mph (NW)    
Max Wind Speed 12 mph    
Max Gust Speed 17 mph    
Visibility 10 miles    
Events Fog , Rain    
Averages and records for this station are not official NWS values.
T = Trace of Precipitation, MM = Missing Value Source: NWS Daily Summary

Daily Weather History Graph

Daily Weather History Graph

Search for Another Location

Airport:

Trip Planner

Search our weather history database for the weather conditions in past years. The results will help you decide how hot, cold, wet, or windy it might be!

Date:

Astronomy

Aug. 05, 2014 Rise Set
Actual Time 5:49 AM CDT 8:36 PM CDT
Civil Twilight 5:13 AM CDT 9:11 PM CDT
Nautical Twilight 4:28 AM CDT 9:57 PM CDT
Astronomical Twilight 3:33 AM CDT 10:50 PM CDT
Moon 3:53 PM CDT (8/5) 12:37 AM CDT (8/5)
Length of Visible Light 15h 58m
Length of Day
14h 47m
Waxing Gibbous, 68% of the Moon is Illuminated
Aug 5
Waxing Gibbous
Aug 10
Full
Aug 17
Last Quarter
Aug 25
New
Sep 2
First Quarter

Hourly Weather History & Observations

Time (CDT) Temp. Dew Point Humidity Pressure Visibility Wind Dir Wind Speed Gust Speed Precip Events Conditions
12:13 AM 51.8 °F 48.2 °F 88% 30.14 in 10.0 mi Calm Calm - N/A   Clear
12:32 AM 51.8 °F 48.2 °F 88% 30.13 in 10.0 mi Calm Calm - N/A   Clear
12:53 AM 51.8 °F 48.2 °F 88% 30.14 in 10.0 mi Calm Calm - N/A   Clear
1:13 AM 50.0 °F 48.2 °F 94% 30.14 in 10.0 mi Calm Calm - N/A   Clear
1:32 AM 50.0 °F 48.2 °F 94% 30.14 in 10.0 mi Calm Calm - N/A   Clear
1:53 AM 50.0 °F 46.4 °F 87% 30.14 in 10.0 mi Calm Calm - N/A   Clear
2:13 AM 48.2 °F 46.4 °F 93% 30.14 in 10.0 mi SE 3.5 mph - N/A   Clear
2:33 AM 48.2 °F 46.4 °F 93% 30.14 in 10.0 mi Calm Calm - N/A   Clear
2:52 AM 50.0 °F 48.2 °F 94% 30.14 in 10.0 mi Calm Calm - N/A   Clear
3:13 AM 48.2 °F 46.4 °F 93% 30.13 in 10.0 mi Calm Calm - N/A   Clear
3:30 AM 48.2 °F 46.4 °F 93% 30.14 in 7.0 mi Calm Calm - N/A   Clear
3:53 AM 46.4 °F 46.4 °F 100% 30.13 in 10.0 mi Calm Calm - N/A   Clear
4:11 AM 46.4 °F 44.6 °F 93% 30.13 in 10.0 mi Calm Calm - N/A   Clear
4:33 AM 46.4 °F 46.4 °F 100% 30.13 in 10.0 mi Calm Calm - N/A   Clear
4:53 AM 46.4 °F 44.6 °F 93% 30.13 in 10.0 mi Calm Calm - N/A   Clear
5:13 AM 46.4 °F 44.6 °F 93% 30.13 in 10.0 mi Calm Calm - N/A   Clear
5:33 AM 44.6 °F 42.8 °F 93% 30.14 in 4.0 mi Calm Calm - N/A   Clear
5:53 AM 44.6 °F 44.6 °F 100% 30.15 in 2.5 mi Calm Calm - N/A   Mist
6:12 AM 44.6 °F 42.8 °F 93% 30.15 in 0.5 mi Calm Calm - N/A Fog Fog
6:33 AM 44.6 °F 44.6 °F 100% 30.15 in 3.0 mi Calm Calm - N/A   Mostly Cloudy
6:52 AM 46.4 °F 44.6 °F 93% 30.15 in 10.0 mi Calm Calm - N/A   Scattered Clouds
7:13 AM 48.2 °F 46.4 °F 93% 30.15 in 10.0 mi Calm Calm - N/A   Clear
7:33 AM 51.8 °F 51.8 °F 100% 30.15 in 10.0 mi Calm Calm - N/A   Clear
7:52 AM 53.6 °F 51.8 °F 94% 30.16 in 10.0 mi Calm Calm - N/A   Clear
8:13 AM 57.2 °F 53.6 °F 88% 30.16 in 10.0 mi Calm Calm - N/A   Clear
8:33 AM 59.0 °F 55.4 °F 88% 30.16 in 10.0 mi Calm Calm - N/A   Clear
8:53 AM 62.6 °F 55.4 °F 77% 30.16 in 10.0 mi Calm Calm - N/A   Clear
9:13 AM 64.4 °F 55.4 °F 73% 30.16 in 10.0 mi Calm Calm - N/A   Clear
9:32 AM 66.2 °F 55.4 °F 68% 30.16 in 10.0 mi Calm Calm - N/A   Clear
9:53 AM 68.0 °F 55.4 °F 64% 30.16 in 10.0 mi Calm Calm - N/A   Clear
10:13 AM 69.8 °F 53.6 °F 56% 30.16 in 10.0 mi Calm Calm - N/A   Clear
10:32 AM 69.8 °F 51.8 °F 53% 30.16 in 10.0 mi Calm Calm - N/A   Clear
10:53 AM 71.6 °F 48.2 °F 43% 30.16 in 10.0 mi ESE 3.5 mph - N/A   Clear
11:13 AM 71.6 °F 51.8 °F 50% 30.16 in 10.0 mi NW 3.5 mph - N/A   Clear
11:32 AM 71.6 °F 51.8 °F 50% 30.16 in 10.0 mi WNW 9.2 mph - N/A   Clear
11:53 AM 71.6 °F 51.8 °F 50% 30.16 in 10.0 mi West 5.8 mph - N/A   Clear
12:13 PM 71.6 °F 51.8 °F 50% 30.15 in 10.0 mi Calm Calm - N/A   Scattered Clouds
12:32 PM 73.4 °F 51.8 °F 47% 30.15 in 10.0 mi NNW 8.1 mph - N/A   Scattered Clouds
12:53 PM 73.4 °F 51.8 °F 47% 30.14 in 10.0 mi NW 6.9 mph - N/A   Clear
1:13 PM 73.4 °F 53.6 °F 50% 30.14 in 10.0 mi NE 3.5 mph - N/A   Scattered Clouds
1:32 PM 73.4 °F 53.6 °F 50% 30.14 in 10.0 mi NW 5.8 mph - N/A   Mostly Cloudy
1:53 PM 75.2 °F 55.4 °F 50% 30.13 in 10.0 mi West 4.6 mph - N/A   Scattered Clouds
2:18 PM 75.2 °F 53.6 °F 47% 30.13 in 10.0 mi NNW 5.8 mph - N/A   Mostly Cloudy
2:32 PM 75.2 °F 55.4 °F 50% 30.12 in 10.0 mi NW 5.8 mph - N/A   Mostly Cloudy
2:53 PM 73.4 °F 55.4 °F 53% 30.12 in 10.0 mi North 3.5 mph - N/A   Mostly Cloudy
3:13 PM 75.2 °F 55.4 °F 50% 30.12 in 10.0 mi WNW 6.9 mph - N/A   Mostly Cloudy
3:32 PM 77.0 °F 55.4 °F 47% 30.11 in 10.0 mi WNW 8.1 mph - N/A   Mostly Cloudy
3:53 PM 75.2 °F 55.4 °F 50% 30.10 in 10.0 mi West 3.5 mph - N/A   Mostly Cloudy
4:13 PM 73.4 °F 55.4 °F 53% 30.10 in 10.0 mi NW 3.5 mph - N/A   Mostly Cloudy
4:32 PM 75.2 °F 55.4 °F 50% 30.10 in 10.0 mi NW 6.9 mph - N/A   Mostly Cloudy
4:53 PM 75.2 °F 55.4 °F 50% 30.09 in 10.0 mi Calm Calm - N/A   Scattered Clouds
5:13 PM 75.2 °F 55.4 °F 50% 30.09 in 10.0 mi WNW 5.8 mph - N/A   Scattered Clouds
5:32 PM 73.4 °F 55.4 °F 53% 30.09 in 10.0 mi WNW 4.6 mph - N/A   Mostly Cloudy
5:53 PM 73.4 °F 57.2 °F 57% 30.09 in 10.0 mi West 3.5 mph - N/A   Mostly Cloudy
6:07 PM 73.4 °F 55.4 °F 53% 30.09 in 10.0 mi West 4.6 mph - N/A   Mostly Cloudy
6:33 PM 73.4 °F 57.2 °F 57% 30.09 in 10.0 mi Calm Calm - N/A   Scattered Clouds
6:53 PM 73.4 °F 57.2 °F 57% 30.09 in 10.0 mi SW 3.5 mph - N/A   Scattered Clouds
7:13 PM 71.6 °F 57.2 °F 60% 30.09 in 10.0 mi West 3.5 mph - N/A   Scattered Clouds
7:32 PM 71.6 °F 57.2 °F 60% 30.09 in 10.0 mi Calm Calm - N/A   Scattered Clouds
7:53 PM 71.6 °F 57.2 °F 60% 30.09 in 10.0 mi Calm Calm - N/A   Mostly Cloudy
8:12 PM 71.6 °F 57.2 °F 60% 30.09 in 10.0 mi Calm Calm - N/A   Scattered Clouds
8:33 PM 69.8 °F 60.8 °F 73% 30.09 in 10.0 mi Calm Calm - N/A   Mostly Cloudy
8:53 PM 68.0 °F 59.0 °F 73% 30.09 in 10.0 mi Calm Calm - N/A   Mostly Cloudy
9:12 PM 66.2 °F 60.8 °F 83% 30.10 in 10.0 mi Calm Calm - N/A   Overcast
9:33 PM 66.2 °F 59.0 °F 78% 30.10 in 10.0 mi Calm Calm - N/A   Mostly Cloudy
9:53 PM 64.4 °F 59.0 °F 83% 30.10 in 10.0 mi Calm Calm - N/A   Scattered Clouds
10:12 PM 64.4 °F 59.0 °F 83% 30.10 in 10.0 mi Calm Calm - N/A   Clear
10:33 PM 64.4 °F 57.2 °F 77% 30.10 in 10.0 mi Calm Calm - N/A   Scattered Clouds
10:52 PM 62.6 °F 57.2 °F 82% 30.10 in 10.0 mi Calm Calm - N/A   Scattered Clouds
11:13 PM 62.6 °F 57.2 °F 82% 30.11 in 10.0 mi Calm Calm - N/A   Mostly Cloudy
11:33 PM 62.6 °F 57.2 °F 82% 30.12 in 10.0 mi NE 11.5 mph 16.1 mph N/A   Overcast
11:52 PM 62.6 °F 57.2 °F 82% 30.13 in 5.0 mi ENE 8.1 mph 17.3 mph 0.07 in Rain Heavy Rain